Regional Weather Roundup
Issued by NWS

Home | Current Version | Previous Version | Text Only | Print | Product List | Glossary Off
Versions: 1 2 3 4 5 6 7 8 9 10 11 12 13 14 15 16 17 18 19 20 21 22 23 24 25 26 27 28 29 30 31 32 33 34 35 36 37 38 39 40 41 42 43 44 45 46 47 48 49 50

758
ASUS44 KMEG 182100
RWRTN
TENNESSEE HOURLY STATE WEATHER ROUNDUP
NATIONAL WEATHER SERVICE MEMPHIS TN
300 PM CST SAT NOV 18 2017

TNZ002-004-019-021-049-052-054-088>092-182200-
WEST TENNESSEE

CITY           SKY/WX    TMP DP  RH WIND       PRES   REMARKS
MEMPHIS INTL   CLOUDY    65  56  72 NW32G46   29.60R
NWS MEMPHIS      N/A     64 N/A N/A MISG        N/A
JACKSON        LGT RAIN  71  65  81 W22G36    29.55R
DYERSBURG      CLOUDY    60  51  72 NW24G41   29.59R
$$

TNZ008-025-027-028-033-062-065-066-182200-
NORTH MIDDLE TENNESSEE

CITY           SKY/WX    TMP DP  RH WIND       PRES   REMARKS
NASHVILLE      CLOUDY    66  62  87 SW14G24   29.50F
CLARKSVILLE    PTSUNNY   69  60  73 SW22G31   29.40F
SMYRNA         LGT RAIN  65  62  90 S10G22    29.51F FOG
CROSSVILLE     CLOUDY    59  53  80 S13G23    29.59F
$$

TNZ061-075-076-078-094-096-097-182200-
SOUTH MIDDLE TENNESSEE

CITY           SKY/WX    TMP DP  RH WIND       PRES   REMARKS
WINCHESTER     CLOUDY    66  59  77 SW16      29.61F
$$

TNZ017-018-042-046-047-182200-
NORTHEAST TENNESSEE

CITY           SKY/WX    TMP DP  RH WIND       PRES   REMARKS
TRI CITIES     CLOUDY    60  45  57 NW6       29.66F
$$

TNZ012-013-036-069-073-074-182200-
CENTRAL EAST TENNESSEE

CITY           SKY/WX    TMP DP  RH WIND       PRES   REMARKS
KNOXVILLE      CLOUDY    64  56  75 S22G32    29.62F
OAK RIDGE      CLOUDY    63  56  78 S9G20     29.63F
$$

TNZ083-085-099-182200-
SOUTHEAST TENNESSEE

CITY           SKY/WX    TMP DP  RH WIND       PRES   REMARKS
CHATTANOOGA    CLOUDY    64  54  69 S12G20    29.67F
$$

SKY/WX REPORTED AS FAIR MEANS FEW OR NO CLOUDS BELOW
12 THOUSAND FEET.





USA.gov is the U.S. government's official web portal to all federal, state and local government web resources and services.